Akron Canton, OH

1:05 AM EDT on July 22, 2017 (GMT -0400)
Akron-Canton Regional

Weather History for KCAK - February, 2013

Change the Weather History Date:

Tuesday, February 19, 2013

  Actual Average Record
Temperature  
Mean Temperature 32 °F 30 °F  
Max Temperature 47 °F 38 °F 65 °F (1939)
Min Temperature 17 °F 22 °F -9 °F (1936)
Degree Days  
Heating Degree Days 33 35  
Month to date heating degree days 719 702  
Since 1 July heating degree days 3947 4238  
Cooling Degree Days 0 0  
Month to date cooling degree days 0 0  
Year to date cooling degree days 0 0  
Moisture  
Dew Point 24 °F    
Average Humidity 71    
Maximum Humidity 92    
Minimum Humidity 49    
Precipitation  
Precipitation 0.19 in 0.08 in 1.09 in (1981)
Month to date precipitation 0.84 1.54  
Year to date precipitation 3.00 4.15  
Snow  
Snow 0.30 in 0.40 in - ()
Month to date snowfall 9.4 7.0  
Since 1 July snowfall 34.6 33.0  
Snow Depth 0.00 in    
Sea Level Pressure  
Sea Level Pressure 29.78 in    
Wind  
Wind Speed 21 mph (WSW)    
Max Wind Speed 36 mph    
Max Gust Speed 45 mph    
Visibility 5 miles    
Events Rain , Snow    
T = Trace of Precipitation, MM = Missing Value Source: NWS Daily Summary

Daily Weather History Graph

Daily Weather History Graph

Search for Another Location

Airport or City:

Trip Planner

Search our weather history database for the weather conditions in past years. The results will help you decide how hot, cold, wet, or windy it might be!

Date:

Astronomy

Feb. 19, 2013 Rise Set
Actual Time 7:14 AM EST 6:05 PM EST
Civil Twilight 6:46 AM EST 6:33 PM EST
Nautical Twilight 6:14 AM EST 7:05 PM EST
Astronomical Twilight 5:42 AM EST 7:37 PM EST
Moon 12:34 PM EST (2/19) 2:46 AM EST (2/19)
Length of Visible Light 11h 47m
Length of Day
10h 51m
Waxing Gibbous, 67% of the Moon is Illuminated
Feb 19
Waxing Gibbous
Feb 25
Full
Mar 4
Last Quarter
Mar 11
New
Mar 19
First Quarter

Hourly Weather History & Observations

Time (EST) Temp. Windchill Dew Point Humidity Pressure Visibility Wind Dir Wind Speed Gust Speed Precip Events Conditions
12:51 AM 46.9 °F - 28.9 °F 50% 29.79 in 10.0 mi SSW 20.7 mph 29.9 mph N/A   Mostly Cloudy
1:51 AM 46.0 °F 36.4 °F 33.1 °F 61% 29.75 in 9.0 mi SSW 32.2 mph 41.4 mph 0.00 in Rain Light Rain
2:28 AM 41.0 °F 30.5 °F 35.6 °F 81% 29.73 in 5.0 mi SSW 26.5 mph 35.7 mph N/A Rain Rain
2:51 AM 41.0 °F 31.6 °F 36.0 °F 82% 29.74 in 6.0 mi South 20.7 mph 29.9 mph 0.04 in Rain Light Rain
3:51 AM 39.9 °F 30.0 °F 35.1 °F 83% 29.69 in 8.0 mi South 21.9 mph 32.2 mph 0.01 in   Overcast
4:51 AM 39.0 °F 28.8 °F 36.0 °F 89% 29.67 in 5.0 mi South 21.9 mph 33.4 mph 0.01 in Rain Light Rain
5:51 AM 39.9 °F 30.0 °F 37.0 °F 89% 29.65 in 6.0 mi SSW 21.9 mph 27.6 mph 0.02 in Rain Light Rain
6:51 AM 39.9 °F 29.5 °F 37.0 °F 89% 29.64 in 4.0 mi SSW 24.2 mph 32.2 mph 0.01 in   Overcast
7:51 AM 41.0 °F 31.4 °F 37.9 °F 89% 29.63 in 6.0 mi SSW 21.9 mph 31.1 mph 0.01 in Rain Light Rain
8:34 AM 39.2 °F 27.8 °F 37.4 °F 93% 29.63 in 2.0 mi WNW 27.6 mph 34.5 mph 0.02 in Rain Rain
8:51 AM 35.1 °F 25.9 °F 33.1 °F 92% 29.68 in 2.0 mi WSW 13.8 mph 25.3 mph 0.05 in Rain , Snow Light Rain
9:51 AM 34.0 °F 23.4 °F 32.0 °F 92% 29.69 in - WSW 17.3 mph 21.9 mph 0.03 in   Overcast
10:51 AM 33.1 °F 19.6 °F 27.0 °F 78% 29.70 in 8.0 mi WSW 27.6 mph 34.5 mph 0.00 in   Overcast
11:51 AM 32.0 °F 20.8 °F 24.1 °F 73% 29.72 in 8.0 mi West 17.3 mph 34.5 mph N/A   Overcast
12:34 PM 30.2 °F 16.5 °F 24.8 °F 80% 29.71 in 8.0 mi WSW 24.2 mph 36.8 mph N/A   Overcast
1:15 PM 28.4 °F 14.1 °F 21.2 °F 74% 29.72 in 10.0 mi WSW 24.2 mph 29.9 mph 0.00 in Snow Light Snow
1:51 PM 28.9 °F 16.5 °F 23.0 °F 78% 29.75 in 10.0 mi WSW 18.4 mph 27.6 mph 0.00 in Snow Light Snow
2:18 PM 30.2 °F 15.9 °F 19.4 °F 64% 29.72 in 7.0 mi West 26.5 mph 32.2 mph 0.00 in Snow Light Snow
2:51 PM 28.9 °F 16.9 °F 19.0 °F 67% 29.77 in 8.0 mi West 17.3 mph 32.2 mph 0.00 in Snow Light Snow
3:51 PM 28.9 °F 16.5 °F 19.0 °F 67% 29.78 in 3.0 mi WSW 18.4 mph 31.1 mph 0.00 in Snow Light Snow
4:17 PM 28.4 °F 16.2 °F 21.2 °F 74% 29.77 in 1.5 mi West 17.3 mph 25.3 mph 0.00 in Snow Light Snow
4:44 PM 26.6 °F 12.4 °F 21.2 °F 80% 29.78 in 0.8 mi West 21.9 mph 35.7 mph 0.00 in Snow Light Snow
4:51 PM 26.1 °F 11.0 °F 19.9 °F 78% 29.82 in 0.8 mi West 24.2 mph 31.1 mph 0.00 in Snow Light Snow
4:55 PM 26.6 °F 11.1 °F 17.6 °F 69% 29.79 in 3.0 mi West 26.5 mph 35.7 mph 0.00 in Snow Light Snow
5:12 PM 26.6 °F 12.7 °F 15.8 °F 64% 29.81 in 10.0 mi West 20.7 mph 34.5 mph 0.00 in   Overcast
5:51 PM 26.1 °F 12.7 °F 16.0 °F 66% 29.86 in 4.0 mi West 18.4 mph 27.6 mph 0.00 in Snow Light Snow
6:04 PM 24.8 °F 11.5 °F 17.6 °F 74% 29.84 in 2.0 mi West 17.3 mph 26.5 mph 0.00 in Snow Light Snow
7:22 PM 23.0 °F 5.7 °F 12.2 °F 63% 29.88 in 4.0 mi West 28.8 mph 38.0 mph 0.00 in Snow Blowing Snow
7:51 PM 21.9 °F 7.8 °F 12.0 °F 66% 29.93 in 5.0 mi West 17.3 mph 31.1 mph 0.00 in Snow Light Snow
8:08 PM 21.2 °F 6.8 °F 14.0 °F 74% 29.89 in 5.0 mi West 17.3 mph 29.9 mph 0.00 in Snow Light Snow
8:51 PM 21.9 °F 9.2 °F 14.0 °F 72% 29.94 in 2.0 mi West 13.8 mph 26.5 mph 0.00 in Snow Light Snow
9:23 PM 21.2 °F 5.6 °F 15.8 °F 80% 29.90 in 1.5 mi West 20.7 mph 26.5 mph 0.00 in Snow Light Snow
9:51 PM 19.9 °F 1.8 °F 12.9 °F 74% 29.96 in 3.0 mi West 27.6 mph 35.7 mph 0.00 in Snow Light Snow
10:18 PM 19.4 °F 4.1 °F 12.2 °F 74% 29.92 in 1.2 mi West 18.4 mph 27.6 mph 0.00 in Snow Light Snow
10:51 PM 19.0 °F 2.0 °F 12.0 °F 74% 29.98 in 3.0 mi West 23.0 mph 34.5 mph 0.00 in Snow Light Snow
11:51 PM 17.1 °F 1.5 °F 10.0 °F 74% 29.99 in 5.0 mi West 17.3 mph 28.8 mph 0.00 in Snow Light Snow